Theta_e
297 297 297 298 298 299 299 299 299 299 300 300 299 300 300 300 301 300 299 299 299 298 299 298 298 298 298 297 297 296 296 296 295 295 294 294 293 293 293 293 294 294
295 296 296 297 297 298 298 298 299 299 298 299 299 299 300 300 301 300 299 299 298 298 298 298 298 297 297 296 296 295 294 294 294 295 293 293 293 293 292 292 293 293
294 294 295 295 295 296 297 297 298 298 298 298 298 298 299 300 300 300 299 299 298 298 298 298 297 297 296 296 295 295 294 293 293 294 293 293 293 292 292 292 292 292
294 294 294 294 294 294 295 296 296 297 297 297 297 298 298 299 299 299 299 298 298 297 297 297 296 296 296 295 295 294 294 293 293 293 293 292 292 292 291 292 291 291
292 292 293 293 294 294 294 294 294 295 295 296 296 297 297 297 297 297 297 297 297 296 296 296 296 295 295 294 294 293 293 293 293 293 292 291 292 291 291 291 290 290
291 291 292 292 293 292 292 292 292 293 293 294 294 295 295 296 295 295 295 295 296 295 295 295 295 295 294 294 293 293 292 292 292 292 291 291 291 291 291 291 290 289
289 289 290 291 291 291 290 291 291 292 292 292 293 293 294 294 294 294 294 294 295 295 294 294 294 294 294 293 293 292 292 292 291 291 290 290 290 290 291 290 290 289
288 289 289 289 289 290 289 290 290 291 291 292 291 292 292 293 293 293 293 293 293 294 294 294 294 294 293 293 292 291 291 292 291 290 290 289 290 289 289 290 289 289
288 288 288 288 288 288 287 288 289 289 291 290 291 291 291 292 292 292 292 292 292 292 293 293 293 293 293 293 292 291 291 290 291 290 289 289 288 289 289 289 289 288
287 287 287 287 286 287 287 288 288 289 289 289 290 290 290 291 291 291 291 291 291 291 291 291 292 292 292 292 292 291 290 290 290 289 289 289 289 288 288 288 288 287
287 287 286 286 286 287 287 287 288 288 288 288 288 288 289 289 290 291 290 290 291 291 291 291 291 291 291 291 292 291 290 290 290 289 289 289 289 288 288 288 288 287
286 286 286 286 286 286 286 287 287 287 287 287 288 287 288 288 288 289 289 289 289 290 290 290 290 290 290 290 290 290 290 290 290 289 289 288 288 288 288 288 288 287
286 286 286 286 286 286 286 287 287 286 286 286 287 287 287 287 288 288 288 288 288 289 289 289 289 289 289 289 289 289 289 289 289 288 288 288 288 288 288 288 288 288
286 286 286 286 286 286 286 286 286 286 286 286 286 286 286 286 286 287 287 288 288 288 288 289 289 288 288 288 288 288 287 287 287 287 287 287 287 288 287 287 287 287
286 286 287 286 286 285 285 285 285 285 285 286 286 286 286 286 286 286 286 286 287 287 288 288 289 289 289 288 287 287 287 287 287 286 286 286 286 286 287 287 287 287
286 286 286 286 286 285 285 285 285 285 284 284 284 285 285 285 285 286 286 285 285 286 286 287 288 289 288 289 289 288 287 287 287 286 286 286 286 286 286 286 286 286
285 285 285 285 285 285 285 285 285 284 284 284 284 284 284 285 285 285 285 285 285 285 285 286 287 287 288 290 290 291 289 288 287 286 286 286 286 285 285 286 286 286
285 285 284 284 285 284 284 284 284 283 283 283 283 284 284 284 284 284 284 285 285 285 285 285 285 287 289 289 290 290 290 288 287 286 286 286 286 286 286 286 286 286
284 284 283 283 283 284 284 283 283 282 282 282 282 283 283 283 283 284 284 284 284 284 284 285 285 287 288 288 289 289 289 289 287 286 286 286 286 286 286 285 285 285
284 283 282 282 283 283 283 282 282 281 281 282 282 282 282 283 283 283 283 283 283 283 283 284 284 286 287 288 288 289 289 289 287 286 286 286 286 286 286 285 285 285
283 283 283 283 283 283 282 282 281 281 280 280 281 281 281 281 282 282 282 282 282 283 282 283 283 286 286 287 287 288 288 288 287 286 286 286 286 286 286 286 286 285
283 282 282 282 282 282 282 281 281 280 280 280 280 280 281 281 281 281 281 281 281 281 281 281 283 285 286 286 286 287 288 286 286 286 286 286 286 286 286 286 286 286
282 282 281 281 281 281 280 280 280 279 279 280 279 279 279 279 279 280 280 280 280 280 280 280 281 284 285 286 286 287 286 285 285 285 285 285 286 286 287 287 287 286
281 281 280 280 279 279 279 280 279 279 278 279 278 277 277 278 279 278 279 279 279 280 281 280 281 282 284 285 285 285 285 283 284 284 284 284 285 286 286 287 287 286
278 278 278 277 277 277 278 277 277 277 277 277 277 277 277 277 277 277 277 278 279 279 280 280 279 281 283 284 284 285 284 283 283 283 283 283 284 284 286 286 286 286
275 275 275 275 274 275 275 275 276 275 275 275 275 275 275 275 275 275 274 275 276 276 277 278 278 278 280 282 283 284 285 283 283 282 282 282 283 283 284 285 285 286
Wind_Speed
8 7 7 7 7 6 6 6 6 6 6 6 6 7 6 5 5 6 7 7 8 9 9 9 9 9 9 10 10 10 10 11 11 11 12 13 13 14 14 14 14 12
11 10 8 7 6 6 7 7 7 6 7 7 7 7 7 6 5 5 6 7 7 8 9 9 9 9 9 9 9 10 10 10 11 8 11 14 13 13 15 15 14 14
10 9 9 9 8 9 9 7 7 6 6 7 7 7 7 6 7 6 6 7 7 8 8 9 9 9 9 8 8 9 10 10 11 9 11 13 12 13 13 13 13 14
10 9 8 8 8 8 8 8 8 7 7 7 7 6 6 5 6 7 6 7 7 6 6 7 8 8 8 8 8 8 9 10 10 9 11 11 12 12 12 11 13 13
10 10 9 8 8 8 7 7 7 7 8 8 8 7 7 6 5 5 6 6 6 6 6 7 7 8 8 8 9 9 9 8 9 10 10 11 11 11 11 11 13 15
9 8 9 9 9 10 9 9 8 8 8 7 7 7 6 6 5 5 6 7 6 7 7 7 7 8 8 8 8 9 9 9 9 10 12 12 11 11 10 11 13 14
10 9 10 9 10 10 9 9 9 8 7 8 7 6 6 6 6 5 6 6 7 7 7 7 7 8 7 8 9 9 9 10 9 10 11 11 11 12 11 11 13 14
8 8 8 8 8 8 9 9 9 9 9 9 9 8 7 7 7 6 5 6 6 7 8 8 8 8 8 8 9 9 9 7 8 10 11 12 11 13 12 10 12 15
5 5 6 7 7 6 7 7 7 6 7 7 8 8 7 7 7 7 7 6 7 7 8 8 8 8 7 8 9 9 10 9 9 10 12 12 13 14 14 12 13 15
6 6 6 6 7 6 7 7 8 8 8 8 7 7 8 8 7 7 6 6 6 7 8 8 8 7 8 8 9 10 10 10 9 10 12 13 13 13 13 13 14 14
7 6 6 6 6 6 7 7 7 7 8 9 9 10 10 9 8 7 7 7 6 7 8 8 8 8 8 8 9 8 10 10 10 10 11 12 13 13 12 13 14 15
7 6 7 7 6 6 6 6 6 5 6 5 6 8 8 8 9 8 7 8 8 8 9 9 9 8 8 8 9 9 9 10 10 10 11 11 12 13 13 13 14 14
9 8 7 7 6 6 7 6 6 6 7 6 6 6 7 7 7 8 7 7 8 8 8 9 9 8 9 9 9 9 9 10 10 11 11 11 11 12 13 14 14 14
8 8 9 8 8 8 8 8 7 7 7 7 7 6 6 6 7 7 7 7 8 8 7 7 8 8 8 9 9 9 10 10 11 11 11 11 11 12 13 13 13 14
8 7 7 8 8 9 10 10 10 9 9 9 9 9 8 8 8 8 8 8 7 7 8 7 7 7 6 7 8 9 9 10 11 12 12 13 13 13 13 14 14 14
7 7 7 7 7 9 9 9 9 9 10 9 10 10 10 10 10 10 9 9 8 8 7 6 6 6 8 13 12 9 9 9 9 10 11 11 12 13 13 13 14 13
8 8 8 9 8 8 6 7 9 7 7 8 9 8 10 10 9 9 9 9 10 9 8 7 6 6 11 12 14 17 13 11 11 11 11 12 12 13 13 13 13 13
8 9 9 9 9 8 8 7 7 8 8 8 8 9 9 8 10 11 10 9 9 9 9 8 7 9 13 14 15 16 15 12 10 10 10 11 12 13 13 13 13 13
10 9 9 10 9 9 8 8 8 9 9 10 10 10 10 11 11 11 10 10 10 10 9 9 9 10 13 15 16 17 18 15 10 11 11 11 12 13 13 13 12 12
13 11 13 13 12 12 11 12 12 12 10 8 9 9 10 10 10 11 11 11 11 11 11 11 11 11 14 14 15 17 18 16 10 12 11 12 13 13 12 13 13 13
12 12 12 12 12 13 12 12 13 13 14 13 11 11 12 11 11 10 10 11 11 11 10 12 12 16 16 16 17 18 18 15 10 11 11 12 13 13 13 14 14 13
12 13 13 12 12 12 12 12 12 12 13 12 12 11 12 12 12 12 12 12 12 12 12 13 13 17 18 17 18 18 20 10 9 10 11 12 13 14 13 13 13 14
13 13 13 12 12 13 14 14 13 14 13 11 12 12 13 13 13 13 12 13 14 14 13 14 13 16 18 18 18 18 13 8 9 9 10 12 13 13 12 13 13 13
12 11 12 13 15 16 16 15 13 12 13 11 12 13 14 13 12 13 13 14 14 15 13 13 14 15 20 19 21 21 16 11 9 10 10 12 12 13 12 12 14 19
12 13 13 15 16 17 16 16 16 16 15 13 13 12 14 14 14 13 14 13 13 14 18 18 15 16 22 24 24 23 17 10 10 9 11 11 12 12 12 12 13 14
13 14 14 14 16 17 17 16 16 16 16 14 13 12 13 13 13 13 16 15 15 15 14 14 15 16 19 27 26 25 24 14 9 9 11 12 12 12 12 11 12 12
Wind_Direction
8 360 353 341 336 340 337 331 323 314 304 297 290 288 283 274 247 225 216 219 219 224 225 226 224 223 222 224 219 223 223 219 215 212 217 219 224 223 224 223 224 224
8 3 355 348 341 344 342 335 326 317 308 302 297 295 290 287 270 236 223 222 224 224 225 227 227 225 223 223 217 222 229 226 224 216 220 220 224 222 226 225 226 229
13 8 5 357 349 347 344 339 329 318 308 306 302 296 293 292 283 253 231 224 228 229 227 227 227 225 223 225 223 226 228 228 230 223 223 223 222 223 225 224 229 227
12 14 12 7 2 356 350 343 337 328 321 314 312 310 305 299 290 279 268 244 235 229 231 231 229 228 224 221 222 227 228 231 231 224 228 232 227 228 228 225 229 230
6 5 8 11 7 7 3 356 347 335 325 318 313 308 305 301 289 279 273 262 251 242 231 227 230 233 229 227 218 224 223 230 228 229 233 232 230 226 229 226 229 231
4 4 4 6 8 9 8 2 353 342 331 324 319 316 308 303 293 284 279 274 261 251 241 234 231 229 230 231 227 227 224 223 221 220 232 236 234 227 227 229 232 233
3 2 359 1 3 7 3 1 353 345 339 330 320 315 315 306 297 288 283 278 273 264 252 244 238 235 228 231 231 232 227 226 225 221 226 233 234 235 229 227 230 232
358 356 357 357 3 5 2 354 347 347 344 338 333 327 325 317 314 307 301 293 284 279 271 257 242 236 233 231 232 234 232 227 227 226 229 229 229 235 230 225 228 234
349 351 354 356 357 359 360 353 348 343 343 339 335 330 327 322 317 317 309 301 294 285 278 272 263 253 240 233 234 234 236 232 227 228 228 231 231 231 230 227 229 231
352 349 351 350 352 347 350 346 344 344 343 343 341 336 335 330 327 321 314 301 288 280 274 270 267 261 257 248 242 238 236 236 233 228 231 235 235 234 231 228 229 231
349 349 348 346 348 340 341 341 338 339 340 340 342 339 337 335 333 334 327 318 308 295 288 282 276 272 267 262 256 250 244 241 238 235 234 236 236 237 234 231 232 233
345 346 343 340 337 336 333 330 328 327 326 321 324 324 324 329 331 333 327 318 312 304 300 294 288 284 279 274 268 264 259 250 245 242 242 239 239 239 237 235 236 235
336 337 335 332 332 329 323 320 322 323 320 320 320 317 316 316 318 315 314 312 304 300 294 291 288 286 283 277 272 267 265 263 259 253 248 246 243 242 239 239 238 240
323 324 325 322 324 325 323 321 322 322 319 314 313 306 305 305 304 302 299 299 295 293 292 291 285 278 275 274 270 267 265 263 262 261 259 256 255 251 246 241 239 240
315 314 307 307 313 318 318 320 323 323 322 320 318 313 307 303 300 296 295 295 295 296 298 295 291 282 275 270 270 266 259 258 258 256 256 259 258 256 251 248 247 245
301 299 295 292 298 298 300 302 305 310 313 314 313 310 307 306 306 300 295 294 295 294 296 294 286 281 272 269 267 267 267 264 261 258 256 256 258 258 256 251 249 247
301 296 295 292 283 282 286 289 291 293 295 297 298 298 298 297 293 294 293 293 293 290 284 281 277 274 272 274 275 272 270 266 263 261 256 255 255 257 260 258 256 252
294 296 296 292 288 284 283 281 282 284 287 286 288 290 290 290 290 287 284 284 283 282 279 273 271 268 271 275 274 274 272 268 265 263 258 255 254 255 258 260 258 259
288 290 293 293 291 287 284 284 282 284 286 288 288 290 292 289 285 284 285 286 283 280 277 277 275 264 264 267 271 273 273 271 267 262 259 257 255 255 256 257 258 257
296 295 294 295 295 295 295 294 296 294 292 283 285 286 282 279 277 279 280 281 282 282 282 278 274 268 267 263 261 260 264 268 265 264 261 258 257 255 255 256 255 256
279 276 273 273 275 276 277 278 281 288 295 299 298 297 293 287 281 279 275 275 276 277 280 281 277 269 268 270 269 264 262 265 264 263 261 259 257 254 252 252 253 253
281 281 281 279 278 275 268 268 271 274 278 279 280 281 282 283 280 280 280 279 276 274 276 275 275 273 271 269 270 272 271 267 264 261 260 259 258 257 252 249 249 248
288 287 288 289 290 287 279 276 279 280 279 276 274 274 274 272 273 275 278 278 280 277 272 272 272 271 271 271 269 267 268 263 263 263 261 260 257 257 254 251 247 243
299 299 300 300 300 295 289 287 288 288 285 282 276 277 274 269 272 275 273 273 272 271 267 271 274 272 271 269 268 268 262 261 261 261 259 260 262 257 254 252 249 245
309 308 305 303 300 297 297 296 295 293 287 285 281 278 275 276 270 267 270 270 271 271 276 274 272 273 274 272 266 263 260 255 254 255 257 257 258 259 254 251 252 247
302 297 296 299 299 297 297 293 292 289 285 284 281 279 278 276 276 273 272 274 273 273 271 272 275 273 272 272 270 264 255 248 248 251 250 255 255 259 260 256 252 252